Weather observations for the past three days for
Savoonga Airport
Metric (Imperial)
Date Time (akdt) Wind (kph) Vis. (km) Weather Sky Cond. Temperature (ºC) Relative Humidity Wind Chill (°C) Heat Index (°C) Pressure Precipitation (cm)
Air Dwpt 6 hour altimeter (cm) sea level (mb) 1 hr 3 hr 6 hr
Max. Min.
21 08:56 W 7 2.82 Fog/Mist OVC004 4.4 4.4 100% 3 76.43 0.0
21 07:56 W 9 0.40 Light Rain Fog OVC002 3.9 3.9 100% 2 76.4 0.0
21 06:56 W 7 0.40 Light Rain Fog OVC002 3.9 3.9 100% 2 76.4 0.0
21 05:56 Calm 0.40 Fog OVC002 4.4 4.4 100% 76.4 0.0
21 04:56 Calm 0.40 Fog OVC002 4.4 4.4 100% 76.4 0.0
21 03:56 Calm 16.09 Overcast OVC013 5.6 5 96% 76.4 0.0
21 02:56 S 7 16.09 Overcast OVC013 5 4.4 96% 4 76.4 0.0
21 01:56 Calm 16.09 Overcast SCT008 OVC015 6.1 5.6 97% 76.38 0.0
21 00:56 Calm 12.87 Overcast OVC004 6.1 6.1 100% 76.38 0.0
20 23:56 NE 7 4.02 Fog/Mist OVC003 6.1 6.1 100% 5 76.4 1018.5
20 22:56 SE 13 1.61 Light Rain Fog/Mist OVC003 6.7 6.7 100% 4 76.38 1018.3
20 09:56 NE 17 16.09 Overcast FEW011 BKN028 OVC033 5 4.4 6.1 2.8 96% 2 76.3 1017.2
20 08:56 NW 7 16.09 Overcast OVC034 6.1 5.6 97% 5 76.25 1016.6
20 07:56 Vrbl 6 16.09 Overcast OVC037 5.6 5 96% 76.25 1016.4
20 06:56 SE 19 16.09 Overcast FEW029 OVC037 4.4 3.9 97% 1 76.23 1016.1
20 05:56 E 19 0.40 Light Rain Fog OVC002 3.3 2.8 97% -1 76.2 1015.9
20 04:56 NE 11 3.22 Fog/Mist OVC004 3.3 2.8 97% 1 76.2 1015.8
20 03:56 NE 15 8.05 Fog/Mist OVC010 3.3 2.8 4.4 2.8 97% 0 76.2 1015.8
20 02:56 NE 13 11.27 Light Rain FEW003 OVC019 3.9 3.3 96% 1 76.17 1015.7
20 01:56 E 15 16.09 Light Rain OVC010 3.3 2.8 97% 0 76.17 1015.6
20 00:56 SE 11 16.09 Overcast OVC014 3.9 3.3 96% 1 76.17 1015.5
19 23:56 SE 17 16.09 Light Rain OVC016 3.3 3.3 100% -0 76.15 1015.3
19 22:56 Calm 3.22 Fog/Mist BKN003 OVC029 3.3 2.8 97% 76.15 1015.3
19 21:56 NE 6 0.80 Light Rain Fog OVC003 2.8 2.8 3.3 1.7 100% 76.1 1014.7 0.03
19 20:56 Calm 1.21 Fog/Mist BKN005 OVC008 3.3 2.8 97% 76.1 1014.5
19 19:56 NE 9 2.41 Fog/Mist OVC004 2.8 2.2 96% 1 76.1 1014.4
19 18:56 E 13 6.44 Fog/Mist OVC004 2.8 2.2 96% -0 76.1 1014.5 0.03
19 17:56 E 20 16.09 Overcast OVC004 2.2 1.7 97% -2 76.12 1014.9
19 16:56 E 19 11.27 Overcast OVC004 2.2 1.7 97% -2 76.15 1015.2 0.03
19 15:56 E 19 16.09 Light Rain OVC004 1.7 1.1 2.2 1.1 96% -2 76.15 1015.3
19 14:56 E 24 16.09 Overcast OVC006 2.2 1.1 93% -3 76.12 1014.9
19 13:56 E 22 16.09 Overcast OVC006 1.7 1.1 96% -3 76.12 1014.9
19 12:56 E 20 16.09 Overcast OVC008 1.7 1.1 96% -3 76.1 1014.5
19 11:56 E 19 16.09 Overcast OVC008 1.7 0.6 93% -2 76.07 1014.1
19 10:56 E 20 16.09 Overcast BKN008 OVC038 1.7 0.6 93% -3 76.05 1013.8
19 09:56 E 15 16.09 Overcast FEW010 BKN048 OVC065 1.1 0.6 1.7 -0.6 97% -3 76.02 1013.7
19 08:56 E 9 16.09 Light Rain OVC042 1.7 -0.6 85% -1 76.05 1013.8
19 07:56 E 9 16.09 Overcast OVC048 1.1 0 92% -1 76.02 1013.5
19 06:56 E 7 16.09 Overcast OVC050 0.6 0 96% -1 76.02 1013.8
19 05:56 E 7 16.09 Partly Cloudy SCT120 0 -0.6 96% -2 76.02 1013.7
19 04:56 Calm 16.09 Fair CLR 0 -1.1 92% 76.05 1013.8
19 03:56 Calm 16.09 Fair CLR 0 -1.1 2.8 0 92% 76.02 1013.7
19 02:56 E 7 16.09 Fair CLR 0 -1.1 92% -2 76.05 1013.9
19 01:56 Calm 16.09 Fair CLR 0.6 -1.7 85% 76.05 1013.9
19 00:56 E 6 16.09 Fair CLR 1.1 -1.7 82% 76.02 1013.6
18 23:56 NE 7 12.87 Fair CLR 2.2 -1.1 79% 0 76.05 1013.8
18 22:56 SE 11 16.09 A Few Clouds FEW120 2.2 -0.6 82% -1 76.02 1013.5
18 21:56 E 9 16.09 Fair CLR 2.2 -0.6 2.8 1.7 82% -0 76.05 1013.8
18 20:56 E 9 16.09 Overcast OVC046 2.2 -0.6 82% -0 76.05 1013.8
18 19:56 E 11 16.09 Overcast BKN040 OVC048 2.2 0 86% -1 76.05 1014.0
18 18:56 E 9 16.09 Overcast BKN008 OVC036 1.7 0 89% -1 76.07 1014.3
18 17:56 NE 13 16.09 Overcast BKN008 OVC036 1.7 0 89% -2 76.1 1014.5
18 16:56 E 11 16.09 Overcast SCT007 OVC040 2.2 0 86% -1 76.1 1014.5
18 14:56 NE 13 16.09 Light Rain OVC005 2.2 0.6 89% -1 76.07 1014.3
18 13:56 E 11 16.09 Overcast OVC005 1.7 0.6 93% -1 76.1 1014.4
18 12:56 NE 15 16.09 Overcast OVC005 2.2 0.6 89% -1 76.1 1014.5
18 11:56 NE 17 16.09 Overcast OVC007 2.8 1.7 93% -1 76.07 1014.2
18 10:56 NE 9 16.09 Overcast OVC003 1.7 1.1 96% -1 76.1 1014.6
18 09:56 NE 11 0.80 Fog OVC003 1.1 1.1 2.8 0.6 100% -2 76.07 1014.2
Date Time (akdt) Wind (kph) Vis. (km) Weather Sky Cond. Air Dwpt Max. Min. Relative Humidity Wind Chill (°C) Heat Index (°C) altimeter (cm) sea level (mb) 1 hr 3 hr 6 hr
6 hour
Temperature (ºC) Pressure Precipitation (cm)